Indian Mountain, AK

10:46 AM AKDT on March 27, 2017 (GMT -0800)
Indian Mountain

Weather History for PAIM - October, 2012

Change the Weather History Date:

Wednesday, October 3, 2012

  Actual Average Record
Temperature  
Mean Temperature 38 °F -  
Max Temperature 43 °F 31 °F 48 °F (2010)
Min Temperature 33 °F 22 °F 10 °F (1996)
Degree Days  
Heating Degree Days 27    
Moisture  
Dew Point 33 °F    
Average Humidity 85    
Maximum Humidity 95    
Minimum Humidity 66    
Precipitation  
Precipitation 0.04 in - - ()
Sea Level Pressure  
Sea Level Pressure 30.09 in    
Wind  
Wind Speed 3 mph (WSW)    
Max Wind Speed 6 mph    
Max Gust Speed -    
Visibility 10 miles    
Events Rain , Snow    
Averages and records for this station are not official NWS values.
T = Trace of Precipitation, MM = Missing Value Source: NWS Daily Summary

Daily Weather History Graph

Daily Weather History Graph

Search for Another Location

Airport or City:

Trip Planner

Search our weather history database for the weather conditions in past years. The results will help you decide how hot, cold, wet, or windy it might be!

Date:

Astronomy

Oct. 03, 2012 Rise Set
Actual Time 8:34 AM AKDT 7:31 PM AKDT
Civil Twilight 7:43 AM AKDT 8:22 PM AKDT
Nautical Twilight 6:42 AM AKDT 9:21 PM AKDT
Astronomical Twilight 5:37 AM AKDT 10:26 PM AKDT
Moon 7:31 PM AKDT (10/3) 2:03 PM AKDT (10/3)
Length of Visible Light 12h 39m
Length of Day
10h 57m
Waning Gibbous, 88% of the Moon is Illuminated
Oct 3
Waning Gibbous
Oct 7
Last Quarter
Oct 15
New
Oct 21
First Quarter
Oct 29
Full

Hourly Weather History & Observations

Time (AKDT) Temp. Windchill Dew Point Humidity Pressure Visibility Wind Dir Wind Speed Gust Speed Precip Events Conditions
12:55 AM 34.3 °F - 32.2 °F 92% 30.12 in 10.0 mi Variable 2.3 mph - N/A   Overcast
1:55 AM 33.6 °F - 32.4 °F 95% 30.12 in 10.0 mi WNW 2.3 mph - N/A   Mostly Cloudy
2:55 AM 33.4 °F - 32.2 °F 95% 30.12 in 10.0 mi Variable 1.2 mph - N/A   Mostly Cloudy
3:55 AM 35.1 °F - 31.8 °F 88% 30.12 in 10.0 mi Variable 1.2 mph - N/A   Overcast
4:55 AM 35.6 °F - 32.0 °F 87% 30.06 in 10.0 mi WNW 2.3 mph - N/A   Overcast
5:55 AM 34.3 °F - 32.5 °F 93% 30.12 in 10.0 mi Calm Calm - N/A   Overcast
6:55 AM 35.6 °F - 32.0 °F 87% 30.12 in 10.0 mi Variable 1.2 mph - N/A Rain Light Rain
7:55 AM 35.2 °F 32.4 °F 31.6 °F 87% 30.12 in 10.0 mi Variable 3.5 mph - N/A Rain Light Rain Showers
8:55 AM 35.8 °F 31.9 °F 32.4 °F 87% 30.12 in 10.0 mi Variable 4.6 mph - 0.02 in Rain , Snow Light Rain Showers
9:37 AM 35.6 °F 32.8 °F 33.8 °F 93% 30.12 in 10.0 mi Variable 3.5 mph - N/A Rain Light Rain
9:55 AM 36.1 °F 33.5 °F 32.7 °F 87% 30.13 in 10.0 mi West 3.5 mph - 0.00 in Rain Light Rain
10:28 AM 35.6 °F 32.8 °F 33.8 °F 93% 30.13 in 10.0 mi West 3.5 mph - N/A Rain Light Rain
10:55 AM 36.0 °F 31.1 °F 33.1 °F 89% 30.13 in 10.0 mi West 5.8 mph - 0.02 in Rain Light Rain
11:55 AM 37.0 °F - 33.8 °F 88% 30.14 in 10.0 mi Variable 2.3 mph - 0.00 in Rain Light Rain
12:55 PM 37.8 °F 35.3 °F 34.3 °F 87% 30.13 in 10.0 mi West 3.5 mph - 0.00 in Rain Light Rain
1:55 PM 39.4 °F - 33.8 °F 80% 30.12 in 10.0 mi Variable 2.3 mph - N/A   Mostly Cloudy
2:55 PM 41.2 °F 39.2 °F 34.2 °F 76% 30.10 in 10.0 mi Variable 3.5 mph - N/A   Mostly Cloudy
3:55 PM 41.7 °F 39.8 °F 32.5 °F 70% 30.09 in 10.0 mi West 3.5 mph - N/A   Mostly Cloudy
4:55 PM 43.2 °F - 32.4 °F 66% 30.07 in 10.0 mi Variable 2.3 mph - N/A   Scattered Clouds
5:55 PM 40.8 °F - 33.8 °F 76% 30.06 in 10.0 mi SSW 2.3 mph - N/A   Clear
6:55 PM 37.8 °F 34.2 °F 33.6 °F 85% 30.04 in 10.0 mi South 4.6 mph - N/A   Clear
7:55 PM 36.1 °F 33.5 °F 32.2 °F 86% 30.03 in 10.0 mi SSE 3.5 mph - N/A   Mostly Cloudy
8:55 PM 38.7 °F - 31.8 °F 76% 30.02 in 10.0 mi Variable 2.3 mph - N/A   Mostly Cloudy
9:55 PM 35.6 °F 31.7 °F 31.8 °F 86% 30.01 in 10.0 mi South 4.6 mph - N/A   Partly Cloudy
10:55 PM 35.8 °F - 30.7 °F 82% 30.00 in 10.0 mi SSW 2.3 mph - N/A   Mostly Cloudy
11:55 PM 37.9 °F 34.4 °F 30.7 °F 75% 29.97 in 10.0 mi SE 4.6 mph - N/A   Mostly Cloudy